This is the latest recevied weather packets stored in our database for station/object K1LVA. If no packets are shown the sender has not sent any weather packets the latest 10 day(s).
| Time | Temp. | Humidity | Pressure | Rain* | Wind** | Luminosity | Snow |
|---|---|---|---|---|---|---|---|
| 1777582216 | 24.44° C | 68% | 1008.9 hPa | 0 mm | - | 179 W/m² | - |
| 1777581914 | 24.44° C | 68% | 1008.7 hPa | 0 mm | - | 166 W/m² | - |
| 1777581608 | 24.44° C | 68% | 1008.9 hPa | 0 mm | - | 198 W/m² | - |
| 1777581303 | 25° C | 66% | 1009 hPa | 0 mm | - | 217 W/m² | - |
| 1777580998 | 24.44° C | 67% | 1009.1 hPa | 0 mm | - | 216 W/m² | - |
| 1777580698 | 24.44° C | 68% | 1008.8 hPa | 0 mm | - | 164 W/m² | - |
| 1777580394 | 24.44° C | 69% | 1008.9 hPa | 0 mm | - | 194 W/m² | - |
| 1777580090 | 25° C | 67% | 1008.8 hPa | 0 mm | - | 141 W/m² | - |
| 1777579787 | 25.56° C | 65% | 1008.9 hPa | 0 mm | - | 124 W/m² | - |
| 1777579484 | 25.56° C | 64% | 1009.1 hPa | 0 mm | - | 416 W/m² | - |
| 1777579180 | 26.67° C | 64% | 1009 hPa | 0 mm | - | 334 W/m² | - |
| 1777578875 | 25° C | 66% | 1009.3 hPa | 0 mm | - | 768 W/m² | - |
| 1777578571 | 26.11° C | 67% | 1008.8 hPa | 0 mm | - | 701 W/m² | - |
| 1777578266 | 25.56° C | 66% | 1009.3 hPa | 0 mm | - | 528 W/m² | - |
| 1777577962 | 25° C | 67% | 1009.2 hPa | 0 mm | - | 222 W/m² | - |
| 1777577657 | 25° C | 69% | 1009.2 hPa | 0 mm | - | 773 W/m² | - |
| 1777577355 | 24.44° C | 70% | 1009.4 hPa | 0 mm | - | 324 W/m² | - |
| 1777577050 | 24.44° C | 69% | 1009.5 hPa | 0 mm | - | 260 W/m² | - |
| 1777576748 | 24.44° C | 71% | 1009.8 hPa | 0 mm | - | 241 W/m² | - |
| 1777576446 | 24.44° C | 69% | 1009.7 hPa | 0 mm | - | 244 W/m² | - |
| 1777576144 | 24.44° C | 71% | 1009.5 hPa | 0 mm | - | 239 W/m² | - |
| 1777575838 | 24.44° C | 70% | 1009.8 hPa | 0 mm | - | 253 W/m² | - |
| 1777575536 | 24.44° C | 70% | 1009.7 hPa | 0 mm | - | 379 W/m² | - |
| 1777575231 | 24.44° C | 71% | 1009.7 hPa | 0 mm | - | 709 W/m² | - |
| 1777574927 | 24.44° C | 72% | 1009.4 hPa | 0 mm | - | 692 W/m² | - |
* Rain latest hour (hover to see other rain measurements)
** Current wind speed in m/s (hover to see current wind gust speed)